Tracking 30995 objects as of 5-Jul-2025
HD Live streaming from Space Station
objects crossing your sky now

ONEWEB-0041

Track ONEWEB-0041 now!
10-day predictions
ONEWEB-0041 is classified as:


NORAD ID: 45148
Int'l Code: 2020-008T
Perigee: 1,071.0 km
Apogee: 1,098.4 km
Inclination: 87.9 °
Period: 106.8 minutes
Semi major axis: 7455 km
RCS: Unknown
Launch date: February 6, 2020
Source: United Kingdom (UK)
Launch site: TYURATAM MISSILE AND SPACE COMPLEX (TTMTR)
Your satellite tracking list
CINEMA 3
Track 1 satellite(s)




NASA's NSSDC Master Catalog

Two Line Element Set (TLE):
1 45148U 20008T   25184.62317763  .00000058  00000-0  70013-4 0  9995
2 45148  87.9285  76.5368 0018356 147.3711 212.8576 13.48556621271074
Source of the keplerian elements: AFSPC